Location: Brighton Point
(40.6144°N, 111.7933°W)
Time: 01:53:02
(UTC+00:00)

N. Korean satellite - Pass Details

Date: 10 March 2021
Orbit: 453 x 499 km, 97.2° (Epoch: 11 April)

Event Time Altitude Azimuth Distance (km) Brightness Sun altitude
Rises 11:43:01 0° 36° (NE) 2,554 11.0 -24.0°
Reaches altitude 10° 11:46:32 10° 74° (ENE) 1,679 10.4 -23.4°
Maximum altitude 11:47:37 11° 91° (E) 1,612 10.2 -23.2°
Drops below altitude 10° 11:48:43 10° 109° (ESE) 1,682 10.0 -23.0°
Sets 11:52:13 0° 146° (SE) 2,566 10.5 -22.3°
